Regional Weather Roundup
Issued by NWS Upton, NY

Current Version | Previous Version | Graphics & Text | Print | Product List | Glossary Off
Versions: 1 2 3 4 5 6 7 8 9 10 11 12 13 14 15 16 17 18 19 20 21 22 23 24 25 26 27

000
ASUS41 KOKX 280808
RWROKX

REGIONAL WEATHER ROUNDUP
NATIONAL WEATHER SERVICE NEW YORK NY
400 AM EDT FRI APR 28 2017

NOTE: "FAIR" INDICATES FEW OR NO CLOUDS BELOW 12,000 FEET WITH NO
SIGNIFICANT WEATHER AND/OR OBSTRUCTIONS TO VISIBILITY.

NYZ071-072-176-178-NJZ106-104-280900-
NEW YORK CITY METRO AREA

CITY           SKY/WX    TMP DP  RH WIND       PRES   REMARKS
Central Park   LGT RAIN  58  58 100 N3        29.89S FOG
Wall St Helipt LGT RAIN  57  56  96 NE8       29.87F FOG
Bronx Bot Gard   N/A     55  55 100 SE1       29.89F
LaGuardia APRT FOG       55  54  96 NE7       29.87R VSB 1/4
Kennedy INTL   FOG       55  55 100 SE5       29.88S VSB 1/4
Breezy Point     N/A     52 N/A N/A E5          N/A
Newark/Liberty LGT RAIN  57  56  96 N3        29.87S VSB 1/2
Teterboro      RAIN      60  58  92 CALM      29.86R FOG
$$

NYZ177-179-078>081-280900-
LONG ISLAND NEW YORK

CITY           SKY/WX    TMP DP  RH WIND       PRES   REMARKS
Jones Beach      N/A     54 N/A N/A MISG        N/A
Matinecock PT    N/A     52 N/A N/A E3          N/A
Farmingdale    FOG       56  56 100 S6        29.88S VSB 1/2
MacArthur/ISP  CLOUDY    58  58 100 S6        29.89R FOG
Shirley        FOG       57  57 100 S8        29.91R VSB 1/2
Mt Sinai Harb    N/A     57 N/A N/A SW3         N/A
Westhampton    FOG       55  55 100 S5        29.92S VSB 1/2
East Hampton   FOG       54  53  99 S5        29.90F VSB 1/2
Montauk          N/A     53  53 100 CALM      29.92F
$$

NYZ052-065-067-280900-
HUDSON VALLEY

CITY           SKY/WX    TMP DP  RH WIND       PRES   REMARKS
White Plains   DRZL/FOG  57  57 100 CALM      29.89R VSB 1/4
Larchmont Harb   N/A     52 N/A N/A N6          N/A
Croton O-T Hud   N/A     57 N/A N/A MISG        N/A
Newburgh       CLOUDY    59  59 100 CALM      29.89R FOG
Montgomery     CLOUDY    60  58  92 E3        29.87R
Poughkeepsie   CLOUDY    60  58  92 CALM      29.88R
Albany         CLOUDY    62  57  83 S7        29.87R
$$

NJZ001-105-106-008-010-013-015-019>022-104-280900-
NEW JERSEY

CITY           SKY/WX    TMP DP  RH WIND       PRES   REMARKS
Newark/Liberty LGT RAIN  57  56  96 N3        29.87S VSB 1/2
Teterboro      RAIN      60  58  92 CALM      29.86R FOG
Caldwell       CLOUDY    58  57  97 CALM      29.88R FOG
Somerville     CLOUDY    59  57  93 N3        29.87R FOG
Linden         CLOUDY    56  56  98 CALM      29.88R FOG
Perth Amboy      N/A     54 N/A N/A SE2         N/A
Sussex         CLOUDY    59  58  96 CALM      29.88R
Andover          N/A     58  57  97 CALM      29.87R
Trenton        MOCLDY    60  59  96 CALM      29.87R FOG
Millville      LGT RAIN  64  62  93 CALM      29.88R
Atlantic City  CLOUDY    62  58  86 S5        29.89R
Wrightstown    CLOUDY    64  61  90 S8        29.85R
Toms River     LGT RAIN  63  60  90 SW7       29.89R
Belmar         TSTM      61  59  93 SW6       29.88R
$$

PAZ047>061-062-071-280900-
EASTERN PENNSYLVANIA

CITY           SKY/WX    TMP DP  RH WIND       PRES   REMARKS
Philadelphia   CLOUDY    66  62  87 S6        29.87R
Allentown      PTCLDY    60  57  89 CALM      29.86R
Scranton       MOCLDY    65  60  84 S3        29.85S
$$

CTZ002-004>006-009-010-012-RIZ004-006-007-MAZ004-011-015-280900-
SOUTHERN NEW ENGLAND
 IN CT

CITY           SKY/WX    TMP DP  RH WIND       PRES   REMARKS
Bradley INTL   DRZL/FOG  58  58 100 S5        29.88F VSB 1
Hartford       CLOUDY    58  58 100 CALM      29.88F FOG
Danbury        FOG       56  56 100 SE5       29.90R VSB 3/4
Wtrbury/Oxford CLOUDY    55  54  94 S5        29.90S VSB<1/4
Bridgeport     FOG       53  51  93 NE6       29.90R VSB 1/4
Meriden        FOG       59  58  96 VRB3      29.88F VSB 1
New Haven      FOG       54  54 100 SE8       29.89R VSB 1/2
Chester        FOG       55  55 100 E5        29.89F VSB<1/4
Groton         FOG       54  53  97 E5        29.91F VSB 1/2
Wilimantic     CLOUDY    59  58  96 CALM      29.91F FOG

 IN RI

CITY           SKY/WX    TMP DP  RH WIND       PRES   REMARKS
Providence     CLOUDY    55  55 100 S7        29.93S FOG
Block Island   FOG       55  55 100 S15       29.92F VSB 1/4
Westerly       FOG       55  55 100 SE3       29.93S VSB 1/2
 IN MA

CITY           SKY/WX    TMP DP  RH WIND       PRES   REMARKS
Boston         CLOUDY    57  57 100 SE5       29.93S
Worcester      FOG       56  54  93 SW6       29.92R VSB 1/2
Westfield      CLOUDY    57  57 100 CALM      29.88F FOG
Provincetown   CLOUDY    54  53  97 S8        29.96S
Nantucket      FOG       51  50  96 SE9       29.96F VSB 1
$$

ANZ330-335-338-340-345-350-353-355-280900-
COASTAL MARINE OBSERVATIONS


STATION/POSITION TIME  SKY/WX   TEMP    WIND        PRES    VSBY  WAVE
                                AIR SEA DIR/SP/G                  HT/PER
                 (UTC)          (F)     (DEG/KT/KT) (MB)    (MI)  (FT/S)
NY HARB ENTRANCE 0750            52 49  190/  8/ 10 1011.3          4/10
20 S FIRE ISLAND 0750            54 49  190/ 12/ 14 1011.3          5/ 8
GREAT SOUTH BAY  0730            56 57  180/  4/  6   N/A
23 SSW MONTAUK P 0750            51 46              1013.0          6/ 9
15 E BARNEGAT LI 0730               51                N/A           5/10
HUDSON CANYON    0650            55 49  190/ 14/ 16 1013.2          6/ 9
KINGS POINT      0736            51 50   10/  2/  3 1011.6
EXECUTION ROCKS  NOT AVBL
CENTRAL LI SOUND 0745            47      70/  6/  8   N/A           0
EASTERN LI SOUND NOT AVBL
ROBBINS REEF     0736            56     120/  3/  4 1011.8
$$


>>>>>>>>>>>>>>>>>>>>>>>>>>>> KEY <<<<<<<<<<<<<<<<<<<<<<<<<<<
>                                                          <
>     SKY/WX - Sky Condition/Present Weather               <
>     TMP    - Temperature in Fahrenheit                   <
>     DP     - Dew Point in Fahrenheit                     <
>     RH     - Relative Humidity in Percent                <
>     WIND   - Direction (from) and Speed in MPH           <
>     PRES   - Mean Sea Level Pressure (inches of Hg)      <
>     WCI    - Wind Chill Index                            <
>     VSB    - VISIBILITY IN MILES                         <
>     HX     - HEAT INDEX                                  <
>     TC     - TEMPERATURE IN CELSIUS                      <
>     VRB    - VARIABLE WIND DIRECTION                     <
>                                                          <
>>>>>>>>>>>>>>>>>>>>>>>>>>>> KEY <<<<<<<<<<<<<<<<<<<<<<<<<<<




USA.gov is the U.S. government's official web portal to all federal, state and local government web resources and services.